Location: Düngen
(52.0952°N, 10.0219°E)
Time: 15:53:05
(UTC+00:00)

USA 267 - Pass Details

Date: 11 March 2026
Orbit: 1101 x 1107 km, 123.0° (Epoch: 10 January)

Event Time Altitude Azimuth Distance (km) Brightness Sun altitude
Exits shadow 18:38:13 17° 101° (ESE) 2,451 4.4 -13.2°
Maximum altitude 18:40:14 20° 124° (SE) 2,306 4.4 -13.5°
Drops below altitude 10° 18:44:48 10° 170° (S) 2,953 5.3 -14.2°
Sets 18:48:04 0° 186° (S) 3,905 6.1 -14.7°
